User: anonymous   Login
Location: *
(33.8649°S, 62.1526°E)
Time: 17:43:35
(UTC+00:00)
Language:

Resurs 1-3 - Orbit

View from above orbital plane
View from above orbital plane
View from above satellite
View from above satellite

Ground track
Ground track

The orbit data is extracted from the following two-line orbital elements,

1 23342U 94074A   21110.15474422  .00000144  00000-0  26160-4 0  9990
2 23342  97.8842 160.1374 0002340  99.8593 260.2883 14.79407641425203
Epoch (UTC): 20 April 2021 03:42:49
Eccentricity: 0.0002340
inclination: 97.8842°
perigee height: 629 km
apogee height: 633 km
right ascension of ascending node: 160.1374°
argument of perigee: 99.8593°
revolutions per day: 14.79407641
mean anomaly at epoch: 260.2883°
orbit number at epoch: 42520

The dashed part of the orbit path shows where the satellite is in the earth's shadow,  

DLR